Location: Tr�vern
(48.0333°N, 4.6000°W)
Time: 17:52:41
(UTC+00:00)

Cosmos 1666 Rocket - Pass Details

Date: 14 July 2020
Orbit: 603 x 633 km, 82.5° (Epoch: 12 August)

Event Time Altitude Azimuth Distance (km) Brightness Sun altitude
Exits shadow 00:23:50 48° 146° (SE) 807 3.7 -20.3°
Maximum altitude 00:24:45 61° 96° (E) 703 3.7 -20.3°
Drops below altitude 10° 00:29:04 10° 16° (NNE) 1,978 7.2 -20.3°
Sets 00:31:18 0° 13° (NNE) 2,883 8.5 -20.3°
